www.pogodaiklimat.ru
ПОГОДА в Лабуане
Время
(UTC), дата
15 17.09
18 17.09
21 17.09
00 18.09
03 18.09
06 18.09
09 18.09
12 18.09
15 18.09
18 18.09
21 18.09
00 19.09
03 19.09
06 19.09
09 19.09
12 19.09
15 19.09
18 19.09
21 19.09
00 20.09
03 20.09
06 20.09
09 20.09
12 20.09
15 20.09
18 20.09
21 20.09
00 21.09
03 21.09
06 21.09
09 21.09
12 21.09
15 21.09
18 21.09
21 21.09
00 22.09
03 22.09
06 22.09
09 22.09
12 22.09
15 22.09
18 22.09
21 22.09
00 23.09
03 23.09
06 23.09
09 23.09
12 23.09
15 23.09
18 23.09
21 23.09
00 24.09
03 24.09
06 24.09
09 24.09
12 24.09
Ветер
(напр.,м/с)
Видим. Явления Облачность Т
(С)
Тd
(С)
f
(%)
Тe
(С)
Тes
(С)
Комфортность P
(гПа)
Po
(гПа)
Тmin
(С)
Tmax
(С)
R
(мм)
R24
(мм)
S
(см)
С 1 20 км 9/1 480 м
[Cu Sc Ac lent Ci sp]
+27.1 +24.8 87 +39 +39 очень
душно
1010.2 1006.9
штиль 0 20 км 9/3 480 м
[Cu Sc Ac trans Ci sp]
+26.4 +25.0 92 +38 +38 очень
душно
1008.5 1005.2
штиль 0 20 км 9/1 480 м
[Cu Sc Ac lent Ci sp]
+25.3 +24.5 95 +35 +35 очень
душно
1007.6 1004.3
В 1 25 км 9/1 1000 м
[Cu Sc Ac lent Ci sp]
+28.2 +26.1 88 +42 +45 опасность
перегрева
1009.1 1005.8 +25.2
СВ 2 25 км 8/1 540 м
[Cu med, cong Ac lent Ci sp]
+31.7 +23.7 63 +43 +54 опасность
перегрева
1008.9 1005.6
С 2 25 км 8/1 540 м
[Cu med, cong Ac lent Ci sp]
+33.4 +23.1 55 +44 +54 опасность
перегрева
1006.6 1003.4
СЗ 2 25 км 8/1 540 м
[Cu med, cong Ac trans Ci sp]
+31.7 +25.8 71 +47 +48 опасность
перегрева
1005.5 1002.2
СЗ 5 20 км 9/3 450 м
[Cu Sc Ac lent Cs]
+29.7 +29.6 99 +53 +53 опасность
перегрева
1008.2 1004.9 +33.8 0.0
С 2 20 км {дождь} 9/1 420 м
[Cu Sc Ac trans Ci sp]
+28.4 +23.9 77 +39 +39 очень
душно
1009.5 1006.2
СВ 2 20 км 9/1 420 м
[Cu Sc Ac und Ci sp]
+27.4 +21.0 68 +34 +34 очень
душно
1008.0 1004.7
СВ 3 20 км 9/1 420 м
[Cu Sc Ac As Ci sp]
+27.3 +22.0 73 +35 +35 очень
душно
1007.6 1004.3
С 3 30 км 9/1 1000 м
[Cu Sc Ac trans Ci sp]
+29.4 +22.4 66 +38 +40 очень
душно
1009.2 1005.9 +27.2 0.0 0.0
СВ 4 30 км 9/1 450 м
[Cu Sc Ac lent Ci sp]
+32.0 +23.0 59 +42 +49 опасность
перегрева
1010.5 1007.2
С 2 30 км 9/1 450 м
[Cu hum Ac lent Ci ing]
+33.1 +24.3 60 +45 +55 опасность
перегрева
1007.6 1004.3
СЗ 4 30 км 9/1 450 м
[Cu Sc Ac As Cs]
+31.6 +25.4 70 +46 +47 опасность
перегрева
1006.7 1003.4
С 3 20 км 10/1 450 м
[Cu Sc Ac trans Cs]
+28.2 +23.7 77 +39 +39 очень
душно
1008.7 1005.4 +33.6 0.0
СЗ 2 20 км 9/1 450 м
[Cu med, cong Ac lent Ci fib]
+28.0 +23.9 78 +39 +39 очень
душно
1009.1 1005.8
СЗ 2 20 км 9/1 420 м
[Cu Sc Ac lent Ci sp]
+27.9 +23.8 78 +38 +38 очень
душно
1008.2 1004.9
СВ 1 20 км 8/1 420 м
[Cu hum Ac lent Ci fib]
+26.1 +23.2 84 +35 +35 очень
душно
1008.5 1005.2
СВ 1 30 км 6/1 <50 м
[Cu hum Ac lent Ci sp]
+29.2 +24.3 75 +41 +44 опасность
перегрева
1010.1 1006.8 +25.3 0.0 0.0
В 1 30 км 6/1 450 м
[Cu hum Ac lent Ci sp]
+31.9 +24.5 65 +45 +59 опасность
перегрева
1009.3 1006.0
ЮЗ 2 30 км 6/1 480 м
[Cb calv Ac lent Ci fib]
+32.2 +24.1 62 +44 +55 опасность
перегрева
1007.0 1003.7
З 5 15 км в посл. час гроза 9/4 450 м
[Cb cap Ac und Ci sp]
+30.3 +25.3 75 +44 +45 опасность
перегрева
1006.5 1003.2
С 2 20 км {гроза} 9/1 450 м
[Cu Sc Ac lent Ci sp]
+27.4 +25.0 87 +39 +39 очень
душно
1008.5 1005.2 +32.5
С 2 20 км в посл. час гроза 9/1 450 м
[Cu Sc Ac lent Ci ing]
+27.5 +24.2 82 +38 +38 очень
душно
1010.1 1006.8
СВ 1 20 км {гроза} 9/1 450 м
[Cu Sc Ac trans Ci sp]
+26.9 +24.8 88 +38 +38 очень
душно
1008.4 1005.1
С 1 20 км зарница 9/1 420 м
[Cb cap Ac trans Ci ing]
+26.9 +25.0 89 +39 +39 очень
душно
1008.1 1004.8
С 2 30 км 9/1 480 м
[Cu med, cong Ac trans Ci fib]
+29.4 +25.0 77 +42 +44 опасность
перегрева
1009.8 1006.5 +26.2
СЗ 3 30 км 8/1 480 м
[Cb cap Ac lent Ci fib]
+31.3 +25.0 69 +45 +53 опасность
перегрева
1009.5 1006.2
ЮЗ 3 30 км 8/1 450 м
[Cu med, cong Ac lent Ci fib]
+32.6 +24.4 62 +45 +54 опасность
перегрева
1006.7 1003.4
З 4 20 км гроза без осадков 9/6 420 м
[Cb cap Ac trans Ci fib]
+30.9 +25.1 71 +44 +45 опасность
перегрева
1006.3 1003.0
штиль 0 20 км 9/3 450 м
[Cb cap Ac lent Ci sp]
+27.4 +25.2 88 +40 +40 очень
душно
1008.8 1005.5 +32.8
Ю 1 20 км гроза без осадков 9/3 450 м
[Cb cap Ac trans Ci sp]
+26.1 +23.7 87 +36 +36 очень
душно
1009.5 1006.2
штиль 0 20 км 9/3 450 м
[Cu Sc Ac trans Ci sp]
+26.0 +24.8 93 +37 +37 очень
душно
1008.4 1005.1
штиль 0 20 км 9/3 450 м
[Cu Sc Ac trans Ci sp]
+26.4 +25.4 94 +38 +38 очень
душно
1008.6 1005.3
штиль 0 10 км осадки на расстоянии 9/6 50 м
[Cb cap Ac trans Ci fib]
+27.9 +25.7 88 +41 +43 опасность
перегрева
1010.4 1007.1 +25.9
ЮЗ 1 9000 м слаб. ливневой дождь, в посл. час гроза 9/6 420 м
[Cu Sc Ac trans Cs]
+27.4 +25.6 90 +40 +46 очень
душно
1010.6 1007.3
ЮЗ 1 25 км 9/4 420 м
[Cu Sc Ac lent Cs]
+30.7 +25.8 75 +46 +53 опасность
перегрева
1007.4 1004.1 1
Ю 2 25 км 9/3 400 м
[Cu Sc Ac lent Cs]
+28.6 +24.4 78 +40 +41 очень
душно
1007.2 1003.9
штиль 0 15 км в посл. час дождь 9/5 400 м
[Cu Sc Ac trans Cs]
+26.7 +24.6 88 +38 +38 очень
душно
1009.4 1006.1 +31.5 0.0
ЮВ 2 15 км гроза без осадков 9/4 420 м
[Cb cap Ac lent Cs]
+27.0 +25.1 89 +39 +39 очень
душно
1010.8 1007.5
ЮВ 3 15 км 9/5 400 м
[Cu Sc Ac trans Cs]
+26.4 +24.2 88 +37 +37 очень
душно
1009.1 1005.8 0.2
ЮВ 2 20 км 9/4 400 м
[Cu Sc Ac lent Ci sp]
+26.1 +23.7 87 +36 +36 очень
душно
1009.4 1006.1
ЮВ 2 25 км 9/3 1000 м
[Cu Sc Ac trans Cs]
+27.3 +24.7 86 +39 +41 очень
душно
1011.5 1008.2 +25.5 1 1.2
ЮВ 3 25 км 9/1 420 м
[Cu Sc Ac lent Cs]
+30.2 +23.8 69 +42 +50 опасность
перегрева
1011.7 1008.4
Ю 3 28 км 9/3 480 м
[Cu med, cong Ac lent Cs]
+30.4 +24.1 69 +42 +48 опасность
перегрева
1009.2 1005.9
Ю 2 20 км осадки на расстоянии 9/4 360 м
[Cu Sc Ac As Cs]
+28.4 +23.8 76 +39 +40 очень
душно
1009.0 1005.7
штиль 0 20 км 10/4 360 м
[Cu Sc Ac trans Cs]
+26.5 +25.0 91 +38 +38 очень
душно
1012.0 1008.7 +30.9 0.0
штиль 0 9000 м слаб. дождь {гроза} 10/4 300 м
[Frnb Ac As Cs]
+24.9 +24.1 95 +34 +34 очень
душно
1012.2 1008.8
ЮВ 1 20 км 9/1 400 м
[Cu Sc Ac lent Ci sp]
+25.2 +24.2 94 +35 +35 очень
душно
1011.4 1008.1 4
штиль 0 9000 м слаб. дождь 10/4 300 м
[Frnb Ac und Cs]
+24.7 +23.8 95 +34 +34 очень
душно
1010.8 1007.4
СВ 2 28 км {дождь} 10/3 420 м
[Cu med, cong Ac As Cs]
+26.9 +24.4 86 +38 +39 очень
душно
1011.1 1007.8 +24.5 4 4.4
СЗ 1 30 км 9/1 540 м
[Cu hum Ac As Cs]
+28.8 +24.2 76 +40 +51 опасность
солнечного
удара
1010.8 1007.5
ЮЗ 2 30 км 9/1 480 м
[Cu Sc Ac As Ci sp]
+30.2 +24.4 71 +42 +51 опасность
перегрева
1009.5 1006.2
З 2 30 км 9/1 450 м
[Cu Sc Ac As Cs]
+28.8 +24.7 79 +41 +42 опасность
перегрева
1009.6 1006.3
З 1 20 км 9/1 420 м
[Cu Sc Ac As Cs]
+27.3 +24.2 83 +38 +38 очень
душно
1010.9 1007.6 +30.6
Местоположение метеостанции Лабуан (Малайзия): широта 5.30 долгота 115.25 высота над уровнем моря 30 м.
В архиве по умолчанию представлена погода в Лабуане за последнюю неделю. Архивные данные за месяц целиком и за предыдущие месяцы, начиная с января 2011 года, Вы можете получить, выбрав интересующий диапазон дат из раскрывающегося списка и нажав кнопку "Найти!".
*Определитесь, кто Вы:
Внимание! Время в таблицах - всемирное. Для получения местного времени необходимо прибавить поправку, которая равна 8 ч.
Смотрите также архив погоды в соседних городах и на ближайших метеорологических станциях:
Партнеры нашего сайта:      
Пояснения к столбцам:
  • Ветер - указаны скорость ветра в м/с - средняя за 10 мин, порывы в срок и между сроками (в фигурных скобках) и направление, откуда дует ветер: С - северный,
  • СВ - северо-восточный, В - восточный, ЮВ - юго-восточный, Ю - южный, ЮЗ - юго-западный, З - западный, СЗ - северо-западный.
  • Видимость - горизонтальная дальность видимости в метрах или километрах. При видимости от 1 до 10 км при отсутствии осадков обычно наблюдается дымка, при ухудшении видимости до 1 км и менее - туман. В сухую погоду видимость может ухудшаться дымом, пылью или мглою.
  • Явления - указаны атмосферные явления, наблюдавшиеся в срок или в последний час перед сроком; фигурными скобками обозначены явления, наблюдавшиеся между сроками (за 1-3 часа до срока); квадратными скобками обозначены град или гололедные отложения с указанием их диаметра в мм.
  • Облачность - указаны через наклонную черту общая и нижняя облачность в баллах и высота нижней границы облаков в метрах; квадратными скобками обозначены формы облаков: Ci - перистые, Cs - перисто-слоистые, Cc - перисто-кучевые, Ac - высококучевые, As - высокослоистые, Sc - слоисто-кучевые, Ns - слоисто-дождевые, Cu - кучевые, Cb - кучево-дождевые. Подробнее классификацию облаков см. в Атласе облаков (PDF).
  • T - Температура воздуха - температура, измеренная на высоте 2 м над землей.
  • Td - Температура точки росы - температура, при понижении до которой содержащийся в воздухе водяной пар достигнет насыщения.
  • f - Относительная влажность воздуха - влажноcть воздуха, измеренная на высоте 2 м над землей.
  • Te - Эффективная температура - температура, которую ощущает одетый по сезону человек в тени. Характеристика душности погоды. При расчете учитывается влияние влажности воздуха и скорости ветра на теплоощущения человека.
  • Tes - Эффективная температура на солнце - температура, которую ощущает человек, с поправкой на солнечный нагрев. Характеристика знойности погоды. Зависит от высоты солнца над горизонтом, облачности и скорости ветра. Ночью, в пасмурную погоду, а также при ветре 12 м/с и более поправка равна нулю.
  • P - Атмосферное давление - приведенное к уровню моря атмосферное давление.
  • Po - Атмосферное давление - измеренное на уровне метеостанции атмосферное давление.
  • Tmin - Минимальная температура - минимум температуры воздуха на высоте 2 м над землей.
  • Tmax - Максимальная температура - максимум температуры воздуха на высоте 2 м над землей.
  • R - Количество осадков - Количество выпавших осадков за период времени, мм. При наведении курсора мыши на число - период времени, за который выпало указанное количество осадков.
  • R24 - Количество осадков - Количество выпавших осадков за 24 часа, мм.
  • S - Снежный покров - Высота снежного покрова, см. При наведении курсора мыши на число - состояние снежного покрова и степень покрытия местности в баллах.